Location: Lasqueti Island Observatory
(49.4855°N, 124.2726°W)
Time: 06:39:49
(UTC-07:00)

Daily predictions for brighter satellites

Satellite Brightness Start Highest point End
(mag) Time Altitude Azimuth Time Altitude Azimuth Time Altitude Azimuth
CZ-4C R/B 2.4 19:20:52 10° SW 19:26:20 86° NW 19:32:37 10° NE
Cosmos 1607 4.1 19:20:56 10° SW 19:27:07 82° NW 19:33:19 10° NE
Cosmos 1408 Rocket 3.8 19:24:34 10° N 19:28:49 46° ENE 19:32:59 10° SSE
ATLAS CENTAUR R/B 4.2 19:28:55 10° S 19:34:20 46° ESE 19:50:14 10° NE
Cosmos 1943 Rocket 3.8 19:31:14 10° N 19:35:11 19° NE 19:39:06 10° E
Cosmos 2369 Rocket 3.1 19:30:55 10° NNW 19:35:56 31° NE 19:40:58 10° ESE
Meteor 1-22 Rocket 4.0 19:32:21 10° S 19:37:37 68° E 19:42:53 10° NNE
Cosmos 2233 Rocket 4.3 19:31:28 10° SSW 19:37:47 78° W 19:44:10 10° N
Aureole 2 Rocket 2.9 19:35:11 10° SSW 19:39:32 67° ESE 19:43:43 10° NNE
Meteor 1-24 Rocket 4.0 19:34:13 10° NNW 19:39:53 74° W 19:45:20 10° S
IDEFIX/ARIANE 42P 4.4 19:37:42 10° SSW 19:42:31 36° W 19:47:23 10° NNW
Cosmos 1470 4.5 19:40:54 10° ESE 19:42:54 14° E 19:44:55 10° NE
USA 215 4.1 19:39:38 10° ENE 19:45:10 28° SE 19:50:38 10° S
Meteor 1-29 4.2 19:43:12 10° NE 19:46:01 22° E 19:48:47 10° SSE
SAR-Lupe-1 4.2 19:43:06 10° SSE 19:46:40 80° WSW 19:50:16 10° NNW
Cosmos 1603 4.4 19:41:55 10° SSE 19:46:53 31° ESE 19:51:52 10° NE
FREGAT/IRIS 2.6 19:45:18 10° SSE 19:48:23 77° ENE 19:51:30 10° N
NOAA 12 4.1 19:45:21 10° SSE 19:50:37 90° WSW 19:55:58 10° NNW
CZ-4B DEB 3.9 19:48:11 10° SE 19:50:58 26° ENE 19:53:45 10° N
SJ-6B 3.0 19:47:00 10° S 19:51:01 80° WSW 19:55:09 10° NNW
Cosmos 1674 3.7 19:49:03 10° N 19:52:28 28° ENE 19:55:52 10° SE
Helios 1A 3.0 19:52:02 10° SSE 19:56:10 60° ENE 20:00:21 10° N
Resurs 1-3 3.7 19:51:59 10° SSE 19:56:15 54° ENE 20:00:34 10° N
ERS-1 Rocket 4.5 19:55:23 12° E 19:58:04 18° NE 20:01:27 10° NNE
Cosmos 1743 Rocket 3.9 19:53:46 10° N 19:58:05 46° ENE 20:02:20 10° SSE
Resurs 01 Rocket 1.6 19:55:19 10° SSE 19:59:45 73° ENE 20:04:13 10° N
In-Cosmos 22 4.3 19:53:56 10° NNW 19:59:45 87° E 20:05:31 10° S
Cosmos 2333 Rocket 3.6 19:56:35 10° WSW 20:02:04 42° NW 20:07:33 10° NNE
ATLAS 3B R/B 3.9 19:55:55 10° WSW 20:03:07 45° NNW 20:10:03 10° NE
Cosmos 1346 3.1 20:00:12 10° N 20:03:09 53° ENE 20:06:03 10° SSE
Cosmos 1758 3.4 19:59:58 10° S 20:03:59 54° E 20:08:00 10° NNE
Cosmos 1452 Rocket 4.0 20:04:23 10° NNW 20:09:35 64° WSW 20:14:47 10° S
COSMO-SKYMED 1 4.0 20:10:23 10° N 20:14:30 43° WNW 20:18:37 10° SW
FengYun 1-2 T 4.2 20:09:21 10° SSE 20:14:51 80° ENE 20:20:22 10° NNW
GP-B 3.9 20:17:04 10° NNE 20:21:01 30° E 20:23:17 20° SE
ATLAS 5 CENTAUR R/B 1.8 20:16:27 10° SSW 20:21:16 69° SE 20:26:34 10° NE
Cosmos 2237 Rocket 3.8 20:17:15 10° WSW 20:22:28 36° NW 20:27:42 10° NNE
NOSS 3-2 (A) 3.6 20:17:34 10° SW 20:23:45 87° NW 20:30:38 10° NE
Nadezhda 4 Rocket 4.0 20:20:35 10° N 20:26:55 84° E 20:33:09 10° S
Cosmos 1328 4.4 20:23:51 10° N 20:27:31 35° ENE 20:28:46 28° ESE
ASTEX 1 3.5 20:23:33 10° NNE 20:28:22 53° E 20:33:09 10° S
Helios 1B rocket 2.3 20:24:20 10° NNE 20:28:28 80° ESE 20:32:35 10° SSW
Meteor 1-21 Rocket 4.4 20:24:46 10° NNW 20:30:20 72° W 20:35:50 10° S
Cosmos 1544 3.0 20:26:50 10° S 20:30:33 72° E 20:34:19 10° NNE
Cosmos 1420 Rocket 4.2 20:25:20 10° NNW 20:30:38 74° WSW 20:35:56 10° SSE
Cosmos 468 4.4 20:26:07 10° SSW 20:31:19 69° ESE 20:36:33 10° NNE
Cosmos 1939 Rocket 4.1 20:33:52 24° ENE 20:34:00 24° ENE 20:37:13 10° NNE
ERBS 3.1 20:30:57 10° NW 20:34:18 40° NNE 20:35:22 31° ENE
Meteor 2-12 Rocket 4.4 20:28:40 10° S 20:34:50 87° ESE 20:41:02 10° N
Cosmos 1092 Rocket 3.9 20:28:47 10° N 20:35:02 73° E 20:41:11 10° SSE
SL-14 R/B 4.3 20:31:49 10° N 20:35:20 28° ENE 20:35:30 27° ENE
Cosmos 839 Rocket 4.3 20:27:48 10° NW 20:36:03 79° NE 20:40:52 21° SE
Cosmos 1655 Rocket 4.4 20:31:37 10° N 20:37:32 42° ENE 20:40:56 23° SE
CZ-2D R/B 3.2 20:35:31 15° SSE 20:38:45 81° ENE 20:42:40 10° NNW
Cosmos 1805 Rocket 4.5 20:36:44 10° N 20:40:37 29° ENE 20:40:53 28° ENE
H-2A R/B 3.7 20:43:12 20° ENE 20:43:12 20° ENE 20:46:18 10° NNE
SL-16 R/B 3.2 20:37:45 10° SW 20:43:16 49° NW 20:48:49 10° NNE
Cosmos 2026 Rocket 4.0 20:42:11 10° N 20:48:10 54° ENE 20:51:47 24° SE
Cosmos-2242 3.7 20:46:30 10° SSW 20:50:48 57° WNW 20:55:11 10° N
ISS -1.0 20:48:54 10° SSW 20:49:32 14° S 20:49:32 14° S
SPOT 5 4.1 20:53:01 21° NE 20:53:01 21° NE 20:55:48 10° NNE
H-2A R/B 2.9 20:49:40 16° S 20:52:41 73° WSW 20:56:34 10° NNW
Cosmos 1633 Rocket 4.5 20:50:13 10° NNE 20:52:59 23° NE 20:52:59 23° NE
Cosmos 1048 Rocket 3.9 20:48:43 10° SSW 20:53:59 72° ESE 20:59:12 10° NNE
Cosmos 2151 2.8 20:50:24 10° N 20:54:37 67° E 20:55:56 41° SE
Cosmos 1269 Rocket 3.9 20:49:34 10° SSW 20:54:52 83° ESE 21:00:11 10° NNE
CENTAUR R/B 2.8 20:49:08 10° S 20:54:53 43° ESE 21:01:20 10° NE
Cosmos 1634 Rocket 4.0 20:49:02 10° S 20:55:09 61° E 21:01:15 10° NNE
Cosmos 2221 4.0 20:58:19 22° NE 20:58:19 22° NE 21:00:15 10° NNE
Cosmos 2058 3.1 20:52:25 10° N 20:56:25 47° ENE 20:56:32 47° E
Cosmos 1953 3.7 20:53:26 10° SW 20:57:13 40° WNW 21:01:00 10° N
YAOGAN 11 4.2 20:58:36 46° E 20:59:02 48° ENE 21:03:11 10° N
FENGYUN 3A 4.1 20:53:57 10° S 20:59:16 62° WSW 21:04:39 10° NNW
Envisat 3.3 20:59:46 40° ESE 21:00:53 47° ENE 21:05:46 10° N
NOSS 3-2 (C) 3.9 20:56:45 10° SW 21:02:58 67° NW 21:09:51 10° NE
USA 186 3.2 21:04:54 25° NW 21:04:54 25° NW 21:06:08 10° NNW
ALOS 3.2 21:00:53 10° S 21:05:23 48° W 21:09:57 10° NNW
Cosmos 1500 Rocket 4.3 21:02:43 10° NNW 21:07:02 52° W 21:11:21 10° S
Gbstr 26 Del rocket 4.4 21:05:22 10° SSW 21:08:13 29° S 21:08:13 29° S
Cosmos 2195 Rocket 4.4 21:03:48 10° N 21:10:10 85° E 21:14:40 21° S
Cosmos 1842 Rocket 3.7 21:06:47 10° SSW 21:11:07 71° WNW 21:15:29 10° N
H-2A R/B 4.0 21:12:41 14° NE 21:12:41 14° NE 21:14:44 10° NNE
CZ-4C R/B 4.0 21:10:38 10° W 21:15:45 31° NNW 21:21:30 10° NE
Cosmos 158 Rocket 3.6 21:13:19 10° SSW 21:18:09 70° ESE 21:23:02 10° NNE
Cosmos 1470 3.4 21:14:44 10° SSW 21:18:33 56° WNW 21:22:24 10° N
Cosmos 1666 Rocket 4.2 21:15:22 10° N 21:18:54 43° NE 21:18:54 43° NE
Cosmos 1943 Rocket 2.1 21:14:19 10° NNW 21:19:59 73° ENE 21:21:11 54° ESE
Cosmos 2369 Rocket 2.7 21:14:46 10° NW 21:20:18 57° WSW 21:23:24 26° S
Cosmos 1733 3.6 21:18:34 20° SSW 21:21:07 63° WNW 21:24:58 10° N
Meteor 2-20 4.4 21:15:41 10° N 21:21:49 62° ENE 21:23:12 49° SE
Cosmos 1943 3.0 21:19:37 10° SSW 21:25:14 75° ESE 21:30:52 10° NNE
Cosmos 2263 4.4 21:22:02 10° NNW 21:27:47 67° WSW 21:29:57 38° S
USA 215 3.1 21:24:24 23° ENE 21:28:48 82° SE 21:35:21 10° SW
SL-8 R/B 4.4 21:24:51 10° SW 21:28:18 40° SSW 21:28:18 40° SSW
SeaSat 1 3.7 21:25:17 10° NE 21:35:11 10° SSW 21:27:30 26° NE
Cosmos 1603 4.5 21:25:09 10° SW 21:30:45 53° NW 21:36:25 10° NNE
MetOp-B 4.4 21:32:03 49° ENE 21:32:03 49° ENE 21:36:59 10° N
Aureole 3 4.1 21:28:33 10° N 21:35:06 68° ENE 21:35:32 66° ESE
ERS-1 Rocket 2.9 21:35:24 61° S 21:36:16 80° WSW 21:41:20 10° NNW
Cosmos 1110 Rocket 4.5 21:36:22 10° NNW 21:41:34 58° WSW 21:42:52 45° SSW
Meteor 2-1 Rocket 4.2 21:48:44 67° S 21:49:33 86° E 21:55:30 10° NNE
Terra 3.9 21:53:42 16° NNE 21:53:42 16° NNE 21:55:14 10° NNE
Sich 1 4.0 21:51:31 10° NNW 21:54:35 44° NNW 21:54:35 44° NNW
Cosmos 2180 Rocket 4.3 21:57:30 78° SSE 21:57:57 86° E 22:04:08 10° N
ATLAS 5 CENTAUR R/B 3.6 22:01:53 10° W 22:06:26 32° NNW 22:11:00 12° NNE
BREEZE-M DEB (TANK) 4.2 22:06:21 10° W 22:12:56 36° SW 22:12:56 36° SW
Cosmos 2279 Rocket 4.4 22:15:30 39° SW 22:17:42 60° WNW 22:23:52 10° N
H-2A R/B 3.6 22:20:20 36° NW 22:20:20 36° NW 22:23:10 10° NNW
Lacrosse 4 Rocket 4.3 22:23:31 10° N 22:24:25 11° NNE 22:24:25 11° NNE
Cosmos 1656 Rocket 4.2 22:20:37 10° NNW 22:24:48 53° NW 22:24:48 53° NW
ARGOS 3.9 22:28:52 49° NNW 22:28:52 49° NNW 22:32:47 10° NNW
SPOT 5 4.5 22:32:16 28° NW 22:32:16 28° NW 22:34:33 10° NNW
Cosmos 2266 Rocket 4.1 22:24:46 10° NNW 22:30:36 71° NW 22:30:36 71° NW
CENTAUR R/B 3.2 22:39:11 10° WSW 22:45:26 55° NW 22:52:32 10° NE
H-2A R/B 3.7 22:53:20 28° N 22:53:20 28° N 22:55:46 10° NNW
Cosmos 1980 Rocket 4.2 22:47:25 10° N 22:50:27 19° NNE 22:50:27 19° NNE
Cosmos 1943 Rocket 4.2 22:59:03 10° NW 23:02:43 21° W 23:02:43 21° W
CZ-4C R/B 4.4 23:01:18 10° NW 23:06:18 24° N 23:08:55 19° NE
SeaSat 1 4.4 23:03:19 10° NNE 23:07:09 27° NW 23:07:09 27° NW
USA 215 3.8 23:11:47 54° NNW 23:11:47 54° NNW 23:17:57 10° W
Terra 4.4 23:32:36 17° NNW 23:32:36 17° NNW 23:33:45 10° NNW
Cosmos 2322 Rocket 4.5 23:42:01 10° N 23:44:22 18° NNE 23:44:22 18° NNE
ATLAS 3B R/B 4.1 23:42:18 10° NW 23:48:32 31° NNE 23:48:32 31° NNE
ATLAS 5 CENTAUR R/B 4.4 23:48:55 10° NW 23:52:33 20° N 23:52:33 20° N
